Zurück zum Katalog

EWS-G3

AktivWetterGEO
NORAD 35491·PAYLOAD·🇺🇸 United States

Gestartet Jun 27, 2009 von Cape Canaveral Space Force Station

Loading…

TLE

AktuellSource: Space-Track

Epoche: Sep 14, 2026, 21:02 UTC

1 35491U 09033A   26257.87667388 -.00000127  00000-0  00000-0 0  9993
2 35491   1.9154  81.7777 0002132  89.2606 221.5261  1.00071474  7482

Verfolge EWS-G3 in Echtzeit mit AllMySat

Download on the App Store